Date,Time,Boat Creek (Gladstone) (�g/m^3),Boyne Island (Gladstone) (�g/m^3),Cannon Hill (South East Queensland) (�g/m^3),Clinton (Gladstone) (�g/m^3),Jondaryan (Jondaryan) (�g/m^3),Lytton (South East Queensland) (�g/m^3),Rocklea (South East Queensland) (�g/m^3),South Brisbane (South East Queensland) (�g/m^3),South Gladstone (Gladstone) (�g/m^3),Springwood (South East Queensland) (�g/m^3),Targinie (Gladstone) (�g/m^3),Woolloongabba (South East Queensland) (�g/m^3),Wynnum North (South East Queensland) (�g/m^3),Wynnum West (South East Queensland) (�g/m^3)
01/01/2014,00:00,4.5,7.4,,15.7,,,7.5,7.7,1.6,4.5,3.1,9.0,4.7,
01/01/2014,01:00,,9.7,,12.8,,,5.8,3.8,10.9,4.4,0.3,3.8,4.3,
01/01/2014,02:00,3.1,7.0,,13.7,,,7.9,6.5,1.2,4.2,5.2,3.9,4.7,
01/01/2014,03:00,5.0,6.4,,11.9,,,6.6,7.9,3.5,4.7,7.6,4.9,5.5,
01/01/2014,04:00,5.1,4.1,,10.9,,,8.8,7.7,2.9,3.3,6.3,5.2,5.3,
01/01/2014,05:00,3.2,7.2,,14.5,,,1.0,6.1,3.9,5.9,5.4,4.5,5.7,
01/01/2014,06:00,0.9,4.6,,13.9,,,2.1,6.8,3.2,7.6,3.7,5.3,5.6,
01/01/2014,07:00,,6.6,,11.7,,,5.3,6.7,9.3,4.0,6.0,4.8,4.7,
01/01/2014,08:00,,7.2,,13.7,,,6.6,6.7,4.6,4.7,10.5,3.9,5.3,
01/01/2014,09:00,2.7,12.0,,15.4,,,7.9,8.8,4.4,5.2,9.0,6.0,4.7,
01/01/2014,10:00,7.6,9.0,,15.7,,,4.7,7.6,2.3,5.1,8.0,7.6,3.6,
01/01/2014,11:00,7.2,10.0,,10.6,,,5.3,7.0,7.2,4.2,7.0,10.7,5.6,
01/01/2014,12:00,5.8,9.6,,5.5,,,8.6,8.4,-3.2,2.7,4.1,8.9,8.0,
01/01/2014,13:00,3.3,12.8,,6.6,,,5.8,35.6,9.6,5.1,5.0,28.1,14.0,
01/01/2014,14:00,6.0,7.3,,9.6,,,27.7,136.2,15.0,4.0,6.9,103.9,2.4,
01/01/2014,15:00,3.5,8.6,,8.9,,,108.1,126.2,14.2,4.5,10.0,131.7,2.5,
01/01/2014,16:00,4.9,11.2,,8.9,,,112.3,42.5,8.9,6.8,5.5,62.7,3.3,
01/01/2014,17:00,9.0,9.1,,5.0,,,34.8,11.1,9.6,90.8,7.9,6.5,4.0,
01/01/2014,18:00,1.3,4.4,,10.7,,,9.3,6.4,,99.5,10.0,3.2,4.4,
01/01/2014,19:00,14.4,7.3,,12.5,,,2.9,6.4,-2.7,55.9,7.7,4.8,2.4,
01/01/2014,20:00,8.2,10.9,,12.2,,,8.2,10.3,-0.3,8.9,6.6,5.5,3.9,
01/01/2014,21:00,4.3,12.0,,16.7,,,5.4,7.2,0.9,7.8,10.6,1.2,3.9,
01/01/2014,22:00,18.7,7.8,,16.4,,,3.8,9.7,11.4,5.6,8.0,2.4,2.4,
01/01/2014,23:00,10.8,12.0,,12.0,,,5.6,6.7,-0.3,4.0,8.9,2.7,2.0,
02/01/2014,00:00,8.9,13.7,,13.8,,,3.1,4.7,7.3,2.1,10.7,5.1,2.2,
02/01/2014,01:00,14.9,13.9,,12.0,,,2.8,6.0,1.2,1.9,11.0,3.8,1.9,
02/01/2014,02:00,0.1,11.8,,12.1,,,8.1,2.0,7.4,6.1,9.2,3.7,5.7,
02/01/2014,03:00,1.7,11.1,,12.8,,,5.0,6.7,6.9,9.9,9.4,9.3,4.5,
02/01/2014,04:00,2.7,7.9,,5.9,,,8.1,7.6,5.2,8.8,7.8,10.3,5.0,
02/01/2014,05:00,5.7,8.0,,8.3,,,5.1,5.4,8.5,7.6,11.5,9.0,6.3,
02/01/2014,06:00,4.2,11.8,,9.8,,,4.6,4.4,11.7,8.0,9.3,0.7,6.8,
02/01/2014,07:00,,14.1,,15.8,,,7.0,8.4,6.6,9.4,9.1,4.9,5.7,
02/01/2014,08:00,5.4,14.1,,15.8,,,11.8,3.4,,4.4,10.6,7.3,4.0,
02/01/2014,09:00,4.3,15.6,,18.6,,,8.6,6.2,7.9,4.0,3.8,9.1,5.5,
02/01/2014,10:00,7.2,14.8,,11.5,,,3.5,5.4,7.1,4.4,6.5,9.8,4.6,
02/01/2014,11:00,6.2,14.4,,6.9,,,3.6,10.5,12.1,8.2,9.1,13.6,4.1,
02/01/2014,12:00,8.2,13.9,,12.5,,,4.9,10.7,,7.5,13.6,12.4,2.9,
02/01/2014,13:00,8.8,13.5,,11.3,,,9.5,9.7,2.8,5.7,9.6,7.1,4.2,
02/01/2014,14:00,8.9,10.5,,9.2,,,12.4,11.8,15.4,5.3,7.5,9.0,5.0,
02/01/2014,15:00,8.3,13.1,,12.5,,,5.2,8.1,15.7,7.1,10.8,10.2,6.0,
02/01/2014,16:00,5.1,10.6,,13.6,,,7.7,6.6,10.8,6.0,6.4,8.5,5.4,
02/01/2014,17:00,6.5,10.8,,15.8,,,3.6,7.9,9.4,6.5,7.2,6.6,4.9,
02/01/2014,18:00,1.9,9.3,,18.8,,,9.0,8.0,0.7,7.6,9.6,2.3,6.1,
02/01/2014,19:00,9.2,9.3,,14.2,,,9.7,11.1,-3.9,6.7,6.3,8.4,5.5,
02/01/2014,20:00,5.7,10.6,,10.7,,,5.8,8.3,6.7,8.4,7.5,11.6,6.1,
02/01/2014,21:00,7.5,7.6,,13.9,,,7.7,5.8,9.2,14.1,10.0,5.4,11.6,
02/01/2014,22:00,3.0,10.1,,13.9,,,4.5,8.2,-0.8,0.4,11.3,6.7,1.4,
02/01/2014,23:00,,6.2,,15.5,,,5.3,11.5,8.8,4.4,7.3,3.5,6.5,
03/01/2014,00:00,-0.1,8.3,,16.7,,,10.1,9.1,-2.4,7.2,6.3,7.6,6.1,
03/01/2014,01:00,-2.5,8.1,,14.4,,,7.4,3.5,6.1,5.9,3.0,4.3,3.0,
03/01/2014,02:00,9.2,9.6,,11.3,,,3.7,11.8,6.8,4.8,3.1,10.9,7.2,
03/01/2014,03:00,1.3,8.1,,4.2,,,1.7,10.4,0.5,4.5,3.8,5.4,5.9,
03/01/2014,04:00,1.9,9.8,,7.5,,,5.4,10.3,3.5,6.2,6.7,6.1,7.0,
03/01/2014,05:00,-1.4,10.4,,11.6,,,10.8,8.5,3.4,9.9,6.6,9.5,9.5,
03/01/2014,06:00,8.6,7.3,,15.9,,,6.4,10.8,3.6,8.8,6.7,9.7,11.5,
03/01/2014,07:00,10.2,8.1,,19.1,,,8.4,11.1,-3.4,8.4,9.7,13.2,11.3,
03/01/2014,08:00,5.8,10.4,,14.2,,,12.3,16.8,0.5,10.3,14.3,17.1,10.4,
03/01/2014,09:00,5.1,8.9,,15.0,,,14.3,17.9,4.4,8.6,16.6,19.7,10.1,
03/01/2014,10:00,2.3,10.1,,7.8,,,9.9,19.0,5.9,10.6,10.9,19.5,7.5,
03/01/2014,11:00,6.2,16.7,,7.3,,,14.3,17.1,13.1,16.9,12.7,21.3,7.2,
03/01/2014,12:00,10.3,11.3,,11.1,,,12.4,12.9,17.0,12.2,19.6,17.1,9.3,
03/01/2014,13:00,10.9,12.9,,8.0,,,10.3,10.5,6.1,7.3,21.9,14.1,10.6,
03/01/2014,14:00,9.8,8.7,,7.2,,,11.7,16.2,11.6,8.8,13.0,11.2,14.6,
03/01/2014,15:00,6.5,10.6,,9.8,,,12.5,7.4,3.0,9.6,27.8,11.5,12.0,
03/01/2014,16:00,7.0,8.7,,10.6,,,7.7,11.6,1.9,7.3,21.6,14.1,12.1,
03/01/2014,17:00,11.0,8.9,,16.3,,,7.0,12.2,,10.0,9.2,11.9,12.7,
03/01/2014,18:00,10.5,8.4,,14.0,,,11.6,9.6,5.8,14.8,10.1,15.6,18.2,
03/01/2014,19:00,6.3,6.6,,19.3,,,13.6,12.6,10.3,17.4,10.9,5.2,15.1,
03/01/2014,20:00,,7.4,,17.5,,,10.2,20.8,6.7,15.3,2.4,8.6,19.8,
03/01/2014,21:00,,8.1,,13.8,,,16.9,18.9,11.9,14.8,5.8,16.4,13.8,
03/01/2014,22:00,,7.8,,13.6,,,13.2,12.3,5.7,17.5,8.5,21.1,9.5,
03/01/2014,23:00,,5.7,,14.4,,,10.6,11.4,,11.5,12.2,15.7,7.6,
04/01/2014,00:00,,9.5,,13.8,,,12.3,19.0,5.0,9.5,10.6,17.9,11.1,
04/01/2014,01:00,,8.4,,12.6,,,8.8,18.3,12.0,9.9,5.5,9.4,8.6,
04/01/2014,02:00,,7.9,,11.4,,,7.5,19.2,3.5,8.5,8.8,7.4,10.7,
04/01/2014,03:00,12.1,7.8,,15.1,,,9.2,12.7,4.1,8.3,5.8,7.6,8.7,
04/01/2014,04:00,,6.6,,10.3,,,9.7,12.9,-2.8,8.9,7.0,9.5,6.9,
04/01/2014,05:00,6.5,6.8,,12.6,,,11.5,8.4,4.8,5.5,1.3,8.3,6.9,
04/01/2014,06:00,,8.4,,14.9,,,10.1,9.1,6.7,7.6,8.2,10.1,8.7,
04/01/2014,07:00,5.9,8.4,,13.9,,,8.0,11.9,10.8,10.3,11.3,9.9,12.6,
04/01/2014,08:00,19.5,14.1,,25.7,,,13.0,14.6,13.8,11.4,26.0,13.2,9.2,
04/01/2014,09:00,18.9,25.0,,28.5,,,11.6,16.3,22.3,13.9,20.4,16.9,7.5,
04/01/2014,10:00,20.1,30.4,,27.5,,,14.9,17.3,11.6,17.7,17.3,20.7,9.6,
04/01/2014,11:00,15.3,26.6,,19.8,,,13.1,21.7,7.2,13.7,12.6,17.9,15.3,
04/01/2014,12:00,12.5,19.2,,11.6,,,16.2,23.5,12.4,12.6,13.3,23.7,14.0,
04/01/2014,13:00,8.2,18.3,,5.1,,,16.8,17.6,9.9,13.4,13.7,22.7,16.0,
04/01/2014,14:00,9.0,18.0,,3.7,,,18.3,22.9,9.8,14.7,22.4,25.4,13.5,
04/01/2014,15:00,6.3,13.4,,7.4,,,21.0,21.8,8.5,20.0,20.2,20.3,14.7,
04/01/2014,16:00,12.3,16.5,,8.7,,,20.1,18.1,8.8,20.3,17.4,14.2,15.0,
04/01/2014,17:00,14.8,11.6,,10.3,,,24.3,9.2,1.5,22.1,7.9,12.6,14.0,
04/01/2014,18:00,11.2,12.5,,17.2,,,20.6,9.4,0.3,32.0,9.2,12.4,18.1,
04/01/2014,19:00,3.9,11.4,,13.3,,,29.2,32.7,17.5,22.7,8.9,27.0,18.3,
04/01/2014,20:00,15.6,9.5,,14.2,,,20.0,28.8,16.0,13.1,6.2,31.4,12.4,
04/01/2014,21:00,,11.3,,14.6,,,9.0,23.3,17.5,8.8,10.0,20.3,,
04/01/2014,22:00,,9.4,,17.3,,,5.2,10.3,9.5,4.6,9.5,9.3,0.2,
04/01/2014,23:00,-0.4,7.9,,19.1,,,3.9,9.9,,4.8,5.9,3.7,1.8,
05/01/2014,00:00,,11.2,,13.4,,,6.7,10.1,-0.2,6.2,3.7,4.7,3.2,
05/01/2014,01:00,,12.9,,11.1,,,7.6,9.6,15.5,5.3,5.7,3.9,2.4,
05/01/2014,02:00,,11.2,,10.9,,,5.8,7.1,16.8,6.1,11.2,5.2,5.1,
05/01/2014,03:00,5.3,11.7,,14.6,,,7.1,5.6,2.7,6.0,17.6,8.5,4.0,
05/01/2014,04:00,,9.0,,16.9,,,7.8,7.0,23.3,8.2,23.9,6.4,5.5,
05/01/2014,05:00,11.4,10.8,,21.9,,,6.2,7.7,12.7,6.3,26.0,4.3,6.3,
05/01/2014,06:00,10.6,18.1,,23.7,,,5.9,10.0,17.7,8.4,18.3,6.7,7.5,
05/01/2014,07:00,9.9,11.8,,23.3,,,4.5,7.0,4.9,8.6,17.9,5.6,6.0,
05/01/2014,08:00,7.3,9.8,,11.7,,,7.4,7.1,11.5,9.8,15.8,7.5,8.4,
05/01/2014,09:00,5.4,12.1,,12.1,,,11.1,9.3,7.2,13.6,7.5,8.2,11.0,
05/01/2014,10:00,7.2,13.4,,8.9,,,12.3,12.2,15.0,14.2,8.8,9.8,9.4,
05/01/2014,11:00,6.8,12.2,,10.2,,,14.6,14.4,7.6,9.6,13.1,9.0,7.5,
05/01/2014,12:00,8.7,10.5,,7.3,,,15.7,8.9,5.9,9.3,32.9,13.1,6.1,
05/01/2014,13:00,6.7,12.9,,6.1,,,8.3,9.7,5.7,7.2,21.6,12.3,7.1,
05/01/2014,14:00,7.6,10.3,,7.2,,,8.6,11.6,9.8,9.9,14.1,12.5,49.7,
05/01/2014,15:00,9.7,11.1,,10.8,,,7.9,10.3,16.6,5.8,15.0,9.7,228.0,
05/01/2014,16:00,10.0,11.7,,12.0,,,7.4,53.5,5.6,5.0,8.7,33.0,228.8,
05/01/2014,17:00,5.8,9.4,,12.8,,,16.0,83.7,1.4,4.8,7.5,60.8,127.5,
05/01/2014,18:00,4.9,8.5,,14.5,,,25.1,61.6,2.5,5.7,6.9,39.4,103.6,
05/01/2014,19:00,3.4,5.2,,13.2,,,25.5,42.8,6.9,4.7,10.9,41.3,,
05/01/2014,20:00,4.5,6.2,,7.5,,,56.1,115.2,6.7,10.6,9.9,118.2,,
05/01/2014,21:00,,8.6,,11.8,,,148.2,152.6,-2.1,61.0,10.0,144.5,,
05/01/2014,22:00,,5.9,,11.5,,,72.5,34.9,0.3,102.7,7.1,42.0,,
05/01/2014,23:00,15.8,7.2,,13.0,,,13.3,12.5,7.6,74.8,5.7,9.2,,
06/01/2014,00:00,6.7,6.5,,12.7,,,17.5,15.6,4.3,18.7,8.3,13.3,,
06/01/2014,01:00,,7.9,,10.9,,,15.0,18.0,,,7.3,12.8,3.7,
06/01/2014,02:00,,10.5,,12.3,,,18.5,17.6,,7.8,15.3,14.7,8.0,
06/01/2014,03:00,13.4,9.8,,19.0,,,14.7,19.3,13.9,11.8,11.8,20.3,9.9,
06/01/2014,04:00,6.1,9.0,,17.8,,,16.2,19.7,5.1,16.2,18.4,19.9,12.8,
06/01/2014,05:00,-0.9,8.2,,7.7,,,20.7,15.1,0.3,16.5,20.1,22.7,7.4,
06/01/2014,06:00,7.3,5.5,,7.3,,,21.4,17.8,4.1,13.5,9.3,23.5,3.4,
06/01/2014,07:00,5.6,7.7,,8.9,,,13.9,14.3,-0.9,7.2,23.8,22.0,3.3,
06/01/2014,08:00,6.2,6.8,,8.3,,,14.2,16.1,-0.4,8.2,27.5,21.6,5.7,
06/01/2014,09:00,1.9,9.0,,7.9,,,19.1,19.5,3.9,9.3,14.6,19.9,7.5,
06/01/2014,10:00,-1.6,10.5,,9.7,,,20.8,19.7,,13.1,13.8,22.8,5.2,
06/01/2014,11:00,2.6,10.7,,12.3,,,19.3,20.5,,11.3,7.3,20.3,5.0,
06/01/2014,12:00,4.9,9.9,,10.1,,,19.0,18.0,0.3,12.3,10.9,19.8,6.1,
06/01/2014,13:00,0.8,7.7,,8.6,,,15.9,14.5,,8.5,13.0,17.4,7.7,
06/01/2014,14:00,6.8,7.8,,10.9,,,11.0,16.1,1.0,7.6,12.5,20.0,6.3,
06/01/2014,15:00,7.9,10.2,,9.6,,,13.1,13.4,15.5,9.2,10.3,20.0,4.3,
06/01/2014,16:00,4.9,7.3,,11.6,,,15.6,13.0,16.5,,16.4,19.5,10.4,
06/01/2014,17:00,4.3,4.7,,11.2,,,4.7,13.4,7.2,,5.8,5.3,3.0,
06/01/2014,18:00,5.7,4.2,,12.6,,,2.7,7.2,3.9,4.8,5.1,21.3,4.2,
06/01/2014,19:00,4.7,3.9,,9.4,,,-0.2,11.6,0.3,10.5,5.5,16.9,12.5,
06/01/2014,20:00,6.2,7.3,,8.4,,,6.8,9.6,,11.3,7.4,10.5,10.9,
06/01/2014,21:00,-1.7,4.3,,11.2,,,4.8,13.1,,8.9,5.1,10.5,9.5,
06/01/2014,22:00,15.7,3.6,,11.6,,,6.3,17.1,,8.3,6.1,10.6,4.1,
06/01/2014,23:00,,5.1,,10.0,,,10.9,19.3,3.5,11.9,7.1,16.1,8.8,
07/01/2014,00:00,3.4,0.3,,9.9,,,9.4,11.6,7.7,9.2,6.0,13.5,11.4,
07/01/2014,01:00,,7.6,,6.1,,,11.9,11.6,5.7,7.2,3.9,16.8,11.0,
07/01/2014,02:00,,,,6.0,,,13.9,13.0,,10.4,3.0,9.8,8.8,
07/01/2014,03:00,10.1,,,7.9,,,12.4,11.3,,8.5,4.1,8.7,8.6,
07/01/2014,04:00,,,,5.2,,,9.8,12.5,7.6,9.0,6.9,9.8,11.1,
07/01/2014,05:00,,3.6,,7.8,,,12.8,13.3,0.1,3.5,6.6,11.0,7.7,
07/01/2014,06:00,9.9,6.2,,5.3,,,10.8,13.8,6.9,5.4,6.6,14.0,7.3,
07/01/2014,07:00,,5.2,,2.1,,,10.6,15.1,11.6,5.7,7.4,16.0,7.1,
07/01/2014,08:00,4.9,1.3,,1.7,,,11.2,12.9,,6.0,5.2,33.3,7.4,
07/01/2014,09:00,-2.3,5.1,,13.6,,,8.6,13.5,-0.2,4.8,8.2,18.5,7.5,
07/01/2014,10:00,4.5,4.4,,17.8,,,8.3,10.3,9.8,6.6,7.4,13.4,8.9,
07/01/2014,11:00,6.1,8.1,,16.0,,,8.8,13.0,4.9,9.5,9.7,14.7,9.0,
07/01/2014,12:00,5.7,13.1,,22.2,,,3.1,15.6,14.4,10.4,13.1,12.8,8.5,
07/01/2014,13:00,11.7,12.3,,20.1,,,9.1,13.0,,9.4,13.5,15.1,8.7,
07/01/2014,14:00,6.8,9.8,,16.0,,,7.5,10.7,,9.5,18.6,16.8,8.6,
07/01/2014,15:00,7.0,5.9,,10.6,,,10.4,13.9,,9.8,11.0,11.0,8.7,
07/01/2014,16:00,3.0,6.2,,8.6,,,6.3,12.8,,10.4,16.9,11.3,10.0,
07/01/2014,17:00,8.2,10.7,,13.1,,,2.8,16.4,19.3,9.0,9.8,14.5,11.9,
07/01/2014,18:00,4.9,7.9,,3.6,,,6.2,,,11.0,8.1,10.4,8.9,
07/01/2014,19:00,8.8,17.3,,15.6,,,12.0,5.1,,8.2,8.4,7.8,7.3,
07/01/2014,20:00,1.1,15.7,,17.9,,,10.7,4.1,,7.5,12.2,8.6,7.1,
07/01/2014,21:00,9.2,19.5,,12.4,,,5.8,6.3,4.9,5.9,13.3,1.6,6.5,
07/01/2014,22:00,,16.5,,16.0,,,6.1,7.0,12.0,4.9,17.6,2.5,6.9,
07/01/2014,23:00,,14.3,,16.6,,,5.3,6.0,6.2,3.7,13.4,1.3,7.0,
08/01/2014,00:00,,13.3,,12.9,,,3.4,6.6,4.0,4.6,13.5,-2.1,3.3,
08/01/2014,01:00,3.2,11.5,,15.3,,,5.0,2.5,5.9,5.8,9.3,5.6,6.0,
08/01/2014,02:00,8.9,11.9,,12.7,,,4.5,4.0,2.8,5.3,6.7,3.9,5.7,
08/01/2014,03:00,7.9,9.6,,13.5,,,5.9,12.1,6.2,6.2,7.3,5.0,5.7,
08/01/2014,04:00,7.3,7.6,,14.7,,,2.1,13.3,6.0,7.6,8.7,11.9,6.6,
08/01/2014,05:00,8.5,9.5,,11.8,,,-0.8,11.2,7.6,6.8,7.0,15.3,6.3,
08/01/2014,06:00,-2.3,9.9,,9.1,,,0.3,7.7,9.1,8.3,11.6,13.2,7.2,
08/01/2014,07:00,1.5,8.4,,13.8,,,5.6,7.8,6.8,8.1,4.5,13.8,6.3,
08/01/2014,08:00,,7.8,,14.0,,,4.7,8.7,11.6,8.5,-1.0,11.1,8.4,
08/01/2014,09:00,0.9,10.3,,15.0,,,11.0,12.8,6.0,8.1,1.3,8.3,8.6,
08/01/2014,10:00,,8.6,,7.7,,,7.5,8.9,-0.8,9.0,6.1,10.1,8.3,
08/01/2014,11:00,8.9,5.1,,7.9,,,,8.4,,10.7,4.4,15.3,9.0,
08/01/2014,12:00,,6.9,,13.7,,,,11.6,6.3,29.4,5.1,17.0,6.5,
08/01/2014,13:00,11.3,5.7,,14.3,,,16.0,10.1,4.9,13.8,4.1,13.0,5.9,
08/01/2014,14:00,,5.4,,13.5,,,14.6,11.7,8.3,9.0,8.6,12.0,5.5,
08/01/2014,15:00,7.3,8.9,,13.6,,,10.0,15.9,7.0,4.6,9.2,13.5,7.3,
08/01/2014,16:00,-3.5,9.9,,13.6,,,4.2,13.3,7.0,2.9,9.8,13.6,10.8,
08/01/2014,17:00,12.7,16.2,,17.0,,,1.1,11.3,5.6,5.0,4.4,6.4,8.5,
08/01/2014,18:00,22.9,14.6,,17.3,,,8.0,7.0,8.4,4.4,7.3,8.8,4.2,
08/01/2014,19:00,14.2,13.1,,15.9,,,7.4,8.4,7.4,4.5,8.9,3.8,6.5,
08/01/2014,20:00,,13.7,,14.2,,,4.8,7.3,4.8,5.7,7.3,5.8,4.8,
08/01/2014,21:00,13.8,10.6,,17.5,,,4.3,5.8,8.1,4.6,8.7,4.3,2.5,
08/01/2014,22:00,2.0,10.5,,16.6,,,2.0,6.5,6.5,3.2,10.6,7.0,2.8,
08/01/2014,23:00,3.5,8.0,,14.6,,,3.5,8.6,7.8,2.0,9.1,8.7,3.4,
09/01/2014,00:00,6.8,12.8,,15.1,,,3.7,5.0,2.7,3.6,8.1,12.5,5.8,
09/01/2014,01:00,3.0,11.6,,13.7,,,4.1,7.8,2.1,2.5,7.5,9.4,17.4,
09/01/2014,02:00,1.7,8.8,,14.7,,,5.3,11.8,1.5,2.7,9.0,8.8,5.4,
09/01/2014,03:00,2.3,9.6,,14.7,,,3.4,6.6,2.7,2.4,7.4,0.6,3.6,
09/01/2014,04:00,-1.8,8.3,,12.4,,,0.1,3.4,2.9,2.9,8.8,-0.6,11.7,
09/01/2014,05:00,8.0,6.5,,11.1,,,-1.7,0.7,5.9,3.0,7.1,-2.4,8.2,
09/01/2014,06:00,3.3,5.7,,8.0,,,-0.4,2.3,5.2,2.2,3.1,-0.2,2.8,
09/01/2014,07:00,5.7,4.1,,11.2,,,5.0,4.3,2.2,3.7,2.1,3.8,1.6,
09/01/2014,08:00,2.1,5.8,,10.4,,,2.8,7.6,4.6,3.1,3.3,1.8,3.2,
09/01/2014,09:00,-2.1,6.8,,14.2,,,5.5,7.6,,3.1,5.2,4.9,3.0,
09/01/2014,10:00,-1.3,6.8,,12.2,,,4.8,6.9,,1.7,8.3,8.5,2.1,
09/01/2014,11:00,4.4,7.8,,10.8,,,4.3,4.9,6.2,1.2,3.4,4.9,1.6,
09/01/2014,12:00,-1.0,8.0,,9.1,,,3.9,8.5,8.8,,8.6,5.9,2.1,
09/01/2014,13:00,1.7,10.4,,7.7,,,1.9,7.7,2.8,2.2,7.9,9.4,2.3,
09/01/2014,14:00,-0.4,7.8,,11.2,,,2.2,5.7,18.1,1.8,5.6,9.6,2.1,
09/01/2014,15:00,3.1,9.0,,5.9,,,3.1,7.0,13.5,3.7,6.5,12.4,3.1,
09/01/2014,16:00,0.4,11.6,,9.8,,,4.2,7.1,-1.4,5.2,6.1,1.0,5.2,
09/01/2014,17:00,2.6,10.9,,11.0,,,1.3,10.8,16.5,3.5,3.5,7.0,7.5,
09/01/2014,18:00,1.6,9.8,,12.9,,,3.4,4.7,9.1,8.9,6.7,6.1,3.5,
09/01/2014,19:00,2.4,9.6,,13.0,,,9.9,4.0,9.6,9.4,10.7,5.1,1.0,
09/01/2014,20:00,3.6,6.0,,12.0,,,12.0,6.9,4.1,3.0,6.3,8.6,3.2,
09/01/2014,21:00,1.6,11.1,,11.3,,,6.2,14.4,6.4,6.4,4.6,9.0,4.1,
09/01/2014,22:00,2.0,9.2,,11.7,,,4.6,4.1,5.9,2.6,6.5,3.8,3.3,
09/01/2014,23:00,2.5,8.8,,6.4,,,1.2,3.3,6.5,,3.7,4.8,0.4,
10/01/2014,00:00,-0.6,8.9,,5.5,,,4.1,0.5,3.6,1.0,2.9,,0.1,
10/01/2014,01:00,1.2,6.3,,7.0,,,2.3,1.7,4.5,,7.2,0.5,,
10/01/2014,02:00,1.3,6.5,,7.5,,,2.7,0.1,4.7,0.6,5.8,-1.4,0.2,
10/01/2014,03:00,-1.1,8.0,,13.2,,,2.1,4.3,5.1,0.9,6.3,0.6,1.2,
10/01/2014,04:00,0.1,2.5,,8.3,,,2.8,2.7,6.3,0.8,4.9,-1.9,1.1,
10/01/2014,05:00,,3.7,,6.6,,,6.2,-0.7,3.9,1.8,6.1,-0.2,1.6,
10/01/2014,06:00,-2.2,5.5,,3.9,,,3.6,1.0,4.9,2.4,5.7,0.0,1.7,
10/01/2014,07:00,2.9,2.6,,6.1,,,2.9,4.9,8.2,2.3,6.6,4.5,2.1,
10/01/2014,08:00,4.6,3.0,,8.7,,,5.4,6.6,7.6,3.8,1.7,3.8,2.3,
10/01/2014,09:00,4.3,5.1,,11.8,,,4.9,8.4,6.3,1.6,1.9,7.2,1.8,
10/01/2014,10:00,0.7,6.0,,12.1,,,3.1,6.3,9.6,2.5,4.7,6.6,2.3,
10/01/2014,11:00,14.0,8.3,,13.4,,,1.3,3.2,6.4,3.7,6.1,11.3,1.5,
10/01/2014,12:00,,11.0,,6.7,,,2.3,5.2,10.4,3.4,7.3,7.9,1.9,
10/01/2014,13:00,1.1,12.9,,6.6,,,3.4,5.0,5.8,0.3,11.1,8.0,2.6,
10/01/2014,14:00,7.9,9.0,,6.4,,,6.4,4.0,2.8,2.6,12.7,7.2,1.8,
10/01/2014,15:00,-1.8,3.2,,3.5,,,4.5,7.8,18.9,3.2,32.1,9.4,2.2,
10/01/2014,16:00,5.1,5.6,,8.0,,,4.2,7.7,5.9,3.8,9.6,7.9,2.3,
10/01/2014,17:00,0.5,7.7,,10.2,,,5.0,-0.5,5.5,3.5,4.7,7.1,3.7,
10/01/2014,18:00,2.1,5.9,,10.8,,,,5.0,7.1,4.3,7.0,7.8,2.9,
10/01/2014,19:00,-3.3,9.7,,9.6,,,4.7,5.8,5.4,5.9,6.6,1.5,2.4,
10/01/2014,20:00,2.6,7.6,,10.1,,,3.9,3.8,4.8,3.8,7.2,0.4,1.8,
10/01/2014,21:00,4.1,6.8,,7.4,,,4.3,3.2,4.2,2.5,5.1,-1.8,1.0,
10/01/2014,22:00,6.0,7.4,,10.3,,,1.6,4.8,7.3,1.6,5.5,2.0,3.5,
10/01/2014,23:00,6.6,3.6,,9.5,,,2.1,7.2,5.0,0.3,5.0,-1.1,1.8,
11/01/2014,00:00,-0.5,3.9,,6.7,,,1.5,-0.2,3.9,0.0,5.4,-4.0,0.5,
11/01/2014,01:00,3.2,5.9,,9.0,,,3.1,2.5,3.8,1.9,6.1,-2.6,1.4,
11/01/2014,02:00,3.0,5.0,,7.4,,,4.5,1.1,3.7,2.5,3.2,2.8,2.0,
11/01/2014,03:00,0.8,5.5,,7.0,,,5.6,2.3,4.2,2.6,2.8,7.1,2.1,
11/01/2014,04:00,-1.4,2.4,,11.3,,,3.3,3.7,5.5,3.2,3.8,2.5,2.2,
11/01/2014,05:00,3.6,5.4,,10.1,,,-0.2,6.4,3.8,2.0,0.9,4.9,2.2,
11/01/2014,06:00,2.3,3.2,,13.0,,,-0.5,3.9,4.4,2.6,1.9,3.3,0.9,
11/01/2014,07:00,2.0,4.9,,10.0,,,-1.7,2.4,5.8,1.3,2.8,3.1,1.1,
11/01/2014,08:00,-2.2,3.1,,9.0,,,-0.1,4.6,3.8,1.8,5.5,8.0,1.4,
11/01/2014,09:00,-0.4,7.8,,9.4,,,6.5,2.3,2.1,1.5,10.2,8.0,1.2,
11/01/2014,10:00,5.0,9.9,,9.8,,,5.1,5.9,7.7,2.0,9.8,7.3,2.2,
11/01/2014,11:00,8.1,8.7,,7.9,,,2.8,6.8,2.0,1.9,6.3,7.1,1.1,
11/01/2014,12:00,5.0,9.4,,12.6,,,2.1,7.3,4.9,2.4,8.9,4.3,0.7,
11/01/2014,13:00,8.4,8.5,,9.2,,,2.7,5.7,8.3,0.4,8.2,2.4,,
11/01/2014,14:00,1.5,5.5,,19.9,,,-0.3,11.3,5.0,0.5,12.1,4.1,1.0,
11/01/2014,15:00,3.5,6.6,,17.8,,,2.6,8.1,1.9,3.0,18.7,5.8,1.5,
11/01/2014,16:00,0.7,6.3,,11.7,,,2.0,2.8,7.1,4.4,33.7,4.3,2.9,
11/01/2014,17:00,0.6,4.8,,7.8,,,4.2,-0.1,8.8,3.9,11.8,3.7,4.7,
11/01/2014,18:00,-1.7,8.4,,8.4,,,4.4,4.4,,4.2,3.6,3.7,3.9,
11/01/2014,19:00,1.7,4.8,,10.9,,,-1.2,3.8,6.5,3.9,2.3,-2.8,2.8,
11/01/2014,20:00,-2.1,4.9,,9.6,,,0.7,,5.0,3.7,3.5,-3.2,2.5,
11/01/2014,21:00,0.6,6.8,,7.2,,,2.0,,2.1,2.9,5.0,-3.0,1.6,
11/01/2014,22:00,4.0,8.0,,10.1,,,1.7,,2.5,2.2,8.5,4.9,0.2,
11/01/2014,23:00,-2.3,5.2,,8.6,,,0.9,7.6,3.3,2.3,6.3,7.0,0.2,
12/01/2014,00:00,-2.6,5.1,,8.6,,,-0.5,3.1,4.1,1.8,3.8,6.3,0.0,
12/01/2014,01:00,,1.4,,6.1,,,2.7,3.3,2.5,2.0,4.2,-0.8,0.5,
12/01/2014,02:00,-0.7,4.1,,8.4,,,4.4,4.4,4.6,1.9,3.0,-3.2,1.0,
12/01/2014,03:00,-2.5,2.3,,10.0,,,1.7,5.5,3.5,4.5,1.3,3.4,2.0,
12/01/2014,04:00,-1.3,-1.0,,8.3,,,1.8,5.9,4.5,3.6,5.3,7.9,3.2,
12/01/2014,05:00,-2.1,4.1,,10.3,,,2.3,7.1,2.3,4.1,3.1,5.2,3.3,
12/01/2014,06:00,0.8,6.3,,12.0,,,3.0,6.3,6.3,3.0,10.2,3.8,2.8,
12/01/2014,07:00,0.9,6.6,,10.5,,,,2.7,4.1,4.8,-0.4,1.2,2.6,
12/01/2014,08:00,0.4,5.1,,13.7,,,0.6,5.2,11.3,2.3,3.6,0.7,1.4,
12/01/2014,09:00,-2.9,5.3,,14.7,,,2.6,1.9,3.4,2.8,7.4,5.9,2.9,
12/01/2014,10:00,-4.1,8.8,,9.0,,,2.5,7.9,6.2,4.0,4.5,5.1,0.7,
12/01/2014,11:00,3.4,11.0,,2.0,,,0.4,4.4,3.6,2.3,4.1,10.8,1.3,
12/01/2014,12:00,5.0,9.9,,7.3,,,-0.4,7.9,4.1,2.4,6.6,8.1,1.6,
12/01/2014,13:00,6.2,6.4,,13.0,,,3.1,4.4,8.7,2.6,6.3,10.4,1.5,
12/01/2014,14:00,1.2,7.8,,0.4,,,3.3,3.5,7.2,1.3,3.8,6.8,0.7,
12/01/2014,15:00,4.8,5.2,,6.4,,,2.0,3.6,6.7,0.6,4.6,2.7,0.7,
12/01/2014,16:00,2.5,7.8,,6.2,,,4.4,2.1,8.1,1.9,3.5,3.5,4.5,
12/01/2014,17:00,3.0,8.7,,6.0,,,-1.0,1.1,10.0,3.1,5.8,2.1,4.5,
12/01/2014,18:00,-2.7,5.9,,4.0,,,5.2,0.7,,3.3,1.6,1.3,3.6,
12/01/2014,19:00,0.8,4.0,,5.2,,,4.6,4.9,4.2,2.9,5.2,2.5,2.2,
12/01/2014,20:00,-0.2,5.2,,9.7,,,0.2,4.2,2.8,2.5,2.5,0.1,2.7,
12/01/2014,21:00,2.0,5.9,,9.9,,,2.5,4.9,4.7,1.9,2.0,4.1,1.5,
12/01/2014,22:00,-0.4,5.2,,6.5,,,2.8,4.3,3.1,0.9,6.2,2.9,0.5,
12/01/2014,23:00,0.4,7.4,,7.3,,,2.2,6.9,3.2,0.3,3.4,-0.5,0.4,
13/01/2014,00:00,2.5,5.3,,8.5,,,-1.0,2.8,3.6,0.1,2.4,-3.7,,
13/01/2014,01:00,2.4,5.9,,8.8,,,2.6,1.1,6.0,0.9,2.1,0.7,6.4,
13/01/2014,02:00,0.9,2.5,,10.6,,,1.3,2.0,2.7,7.9,5.1,0.8,23.4,
13/01/2014,03:00,0.2,2.6,,11.2,,,4.6,8.4,1.6,9.3,4.0,8.4,9.4,
13/01/2014,04:00,0.9,0.4,,6.9,,,1.7,13.9,3.1,6.7,4.9,8.9,18.3,
13/01/2014,05:00,,1.0,,7.6,,,1.7,7.1,3.8,5.0,3.6,6.1,5.3,
13/01/2014,06:00,,3.4,,7.5,,,4.0,5.8,5.2,5.0,2.6,7.0,3.4,
13/01/2014,07:00,-0.8,2.7,,7.3,,,4.3,7.1,6.3,4.5,14.2,9.8,2.0,
13/01/2014,08:00,0.3,6.0,,9.8,,,3.2,3.7,0.3,3.7,22.9,9.2,1.2,
13/01/2014,09:00,0.0,5.4,,9.7,,,2.5,6.6,15.1,2.6,7.5,9.3,0.8,
13/01/2014,10:00,2.9,7.3,,7.0,,,1.5,7.7,10.2,6.0,7.3,2.5,1.0,
13/01/2014,11:00,3.9,6.5,,7.1,,,5.7,7.9,6.3,10.6,6.9,8.9,0.7,
13/01/2014,12:00,3.8,5.4,,3.7,,,7.6,5.1,3.0,20.0,1.6,7.3,1.4,
13/01/2014,13:00,-1.2,6.3,,11.0,,,12.4,2.3,6.2,17.6,5.5,8.6,1.1,
13/01/2014,14:00,4.3,10.6,,17.0,,,19.3,6.4,,27.3,4.8,12.9,1.3,
13/01/2014,15:00,5.5,8.1,,21.7,,,25.3,11.8,,37.5,5.4,15.8,1.3,
13/01/2014,16:00,1.4,7.4,,22.5,,,31.3,20.2,,35.4,3.0,20.5,1.5,
13/01/2014,17:00,-0.7,8.4,,10.4,,,45.9,9.2,7.9,17.5,4.5,7.1,1.9,
13/01/2014,18:00,1.5,7.2,,12.3,,,21.5,3.4,4.5,2.5,8.4,2.2,2.4,
13/01/2014,19:00,-1.4,4.0,,14.0,,,4.9,3.9,6.0,1.4,5.0,7.7,2.2,
13/01/2014,20:00,1.3,0.9,,9.4,,,5.4,2.2,4.5,3.7,6.5,4.8,1.6,
13/01/2014,21:00,-0.2,4.7,,10.3,,,1.3,5.5,4.5,9.4,6.0,6.8,3.0,
13/01/2014,22:00,-1.8,7.8,,10.2,,,-0.3,18.8,5.0,11.9,3.2,22.0,0.9,
13/01/2014,23:00,-1.1,7.8,,10.0,,,8.6,30.3,6.8,0.0,5.4,25.8,0.0,
14/01/2014,00:00,-0.4,5.4,,5.0,,,9.1,27.2,3.7,1.3,3.9,23.7,,
14/01/2014,01:00,1.2,3.6,,5.8,,,2.5,,7.7,0.3,6.1,2.8,7.4,
14/01/2014,02:00,3.9,7.3,,4.0,,,0.4,4.3,6.4,,6.4,,3.1,
14/01/2014,03:00,-0.6,5.8,,5.5,,,4.8,3.8,1.5,1.1,4.3,-3.3,1.7,
14/01/2014,04:00,-1.0,5.2,,3.7,,,-1.0,1.7,0.7,0.9,4.4,1.5,2.6,
14/01/2014,05:00,-1.0,5.9,,8.8,,,0.6,2.5,9.6,7.5,3.4,4.1,1.4,
14/01/2014,06:00,-1.6,4.0,,13.6,,,3.6,3.6,8.3,,5.5,1.1,1.5,
14/01/2014,07:00,2.9,4.5,,11.0,,,8.0,4.5,5.5,0.5,1.5,3.1,1.5,
14/01/2014,08:00,1.7,7.0,,11.6,,,1.0,3.7,,,4.6,9.3,1.6,
14/01/2014,09:00,0.6,9.5,,14.8,,,2.4,6.2,,2.5,4.7,8.5,2.0,
14/01/2014,10:00,0.0,7.7,,13.3,,,2.6,4.7,,2.5,6.7,8.8,1.5,
14/01/2014,11:00,2.8,7.0,,9.6,,,0.7,6.6,,1.9,14.5,7.6,1.3,
14/01/2014,12:00,-1.6,8.8,,10.3,,,1.6,5.6,7.9,1.9,0.6,5.8,1.1,
14/01/2014,13:00,1.7,9.5,,8.6,,,-1.3,3.7,8.7,2.4,1.1,3.6,1.2,
14/01/2014,14:00,1.0,9.5,,11.0,,,1.7,3.0,5.0,3.5,6.4,7.3,1.1,
14/01/2014,15:00,6.2,7.0,,7.6,,,1.5,7.3,8.1,0.9,5.0,5.8,0.5,
14/01/2014,16:00,3.4,4.2,,12.7,,,3.9,6.8,1.5,1.8,3.7,4.7,1.4,
14/01/2014,17:00,11.2,8.0,,11.0,,,3.7,5.8,4.7,3.5,6.0,7.5,2.3,
14/01/2014,18:00,5.3,9.4,,13.7,,,5.1,4.9,5.4,3.2,5.1,6.3,2.4,
14/01/2014,19:00,2.8,8.0,,8.3,,,3.2,5.3,5.1,2.3,8.9,-0.8,1.5,
14/01/2014,20:00,4.4,12.0,,8.2,,,1.6,0.5,7.1,2.0,6.7,1.4,1.3,
14/01/2014,21:00,1.1,8.4,,12.1,,,0.6,2.9,11.2,1.9,3.9,-1.1,1.8,
14/01/2014,22:00,3.0,7.1,,13.2,,,1.6,3.3,7.2,1.1,0.2,,1.1,
14/01/2014,23:00,2.4,8.1,,9.9,,,3.3,4.3,9.5,1.1,9.2,1.2,0.6,
15/01/2014,00:00,0.5,9.4,,7.5,,,1.8,1.1,7.0,0.8,7.9,2.9,0.8,
15/01/2014,01:00,4.5,9.1,,6.3,,,2.4,-0.4,7.3,0.6,5.8,-3.5,0.4,
15/01/2014,02:00,2.1,9.1,,14.8,,,1.4,2.5,10.0,1.3,5.6,-3.7,0.9,
15/01/2014,03:00,2.1,6.2,,12.4,,,1.2,1.6,10.4,0.5,9.0,-3.0,1.3,
15/01/2014,04:00,0.5,3.1,,8.5,,,0.9,2.6,7.4,2.3,7.4,-0.2,1.9,
15/01/2014,05:00,-1.5,3.6,,11.9,,,4.3,3.1,6.0,8.5,7.5,1.8,1.8,
15/01/2014,06:00,-3.4,4.2,,10.9,,,4.8,9.8,7.5,14.5,3.0,13.8,2.2,
15/01/2014,07:00,0.2,6.3,,7.7,,,11.8,15.0,7.6,7.5,8.4,14.0,1.3,
15/01/2014,08:00,1.7,6.8,,3.0,,,6.2,5.0,6.9,0.2,,8.8,1.5,
15/01/2014,09:00,2.3,12.1,,9.5,,,5.3,2.2,2.8,,,6.6,1.0,
15/01/2014,10:00,2.1,10.4,,17.0,,,2.2,4.5,9.4,1.8,,8.0,1.6,
15/01/2014,11:00,,10.7,,11.3,,,2.9,1.9,7.7,1.3,18.5,5.2,1.4,
15/01/2014,12:00,,11.8,,4.3,,,-0.1,4.3,5.5,3.5,8.9,6.4,1.6,
15/01/2014,13:00,,11.7,,6.0,,,3.8,1.2,6.1,2.7,8.6,8.3,1.4,
15/01/2014,14:00,,8.2,,29.4,,,6.3,6.3,5.3,1.4,9.3,7.6,1.3,
15/01/2014,15:00,,8.6,,8.0,,,2.8,7.1,6.4,2.6,16.5,12.3,2.2,
15/01/2014,16:00,,,,9.5,,,6.5,8.2,4.1,1.9,10.4,4.4,3.0,
15/01/2014,17:00,,,,10.1,,,4.2,5.5,2.6,5.1,2.1,9.0,4.5,
15/01/2014,18:00,,10.8,,11.1,,,-1.1,7.5,3.3,5.7,4.9,8.6,3.5,
15/01/2014,19:00,,10.5,,13.6,,,0.0,3.0,6.6,4.1,4.5,2.1,1.9,
15/01/2014,20:00,,11.4,,9.0,,,5.6,4.7,2.4,3.6,8.0,0.0,2.1,
15/01/2014,21:00,,7.0,,8.4,,,3.3,4.2,4.2,2.1,2.4,-2.9,1.0,
15/01/2014,22:00,,5.5,,6.1,,,4.7,6.5,9.9,0.2,1.9,4.4,1.1,
15/01/2014,23:00,,8.0,,8.1,,,2.9,5.8,6.7,1.2,2.2,2.7,1.7,
16/01/2014,00:00,,6.5,,9.2,,,3.1,1.3,6.0,2.5,3.2,7.1,2.4,
16/01/2014,01:00,,5.2,,8.9,,,5.6,3.8,5.8,1.5,-0.3,-1.0,1.6,
16/01/2014,02:00,,5.6,,8.1,,,10.9,7.1,6.4,2.1,5.4,-2.6,2.3,
16/01/2014,03:00,,6.4,,11.2,,,14.7,10.0,8.1,2.5,2.0,1.4,3.1,
16/01/2014,04:00,,1.7,,9.2,,,9.3,13.2,3.1,7.0,0.0,4.7,3.5,
16/01/2014,05:00,,4.2,,7.2,,,3.3,12.4,5.7,9.1,-1.9,7.6,3.9,
16/01/2014,06:00,,2.7,,,,,4.4,13.6,5.2,13.5,2.7,8.4,3.6,